Flag for Canada Weather past 2 weeks in Wood Buffalo, Alberta, Canada

Now
48 °F

Cool.


Feels Like: 48 °F
Forecast: 48 / 83 °F
Wind: 1 mph from South

Location: Fort McMurray CS

Current Time: Jul 22, 2014 at 5:27:00 AM

Latest Report: Jul 22, 2014 at 4:00 AM


Visibility: N/A

Pressure: 30.04 "Hg

Humidity: 92%

Dew point: 46 °F

Location of Wood BuffaloLocation

Historic Weather in Wood Buffalo — Graph

°F

Wood Buffalo temperature yesterday

Maximum temperature yesterday: 73 °F (at 4:00 PM)
Minimum temperature yesterday: 42 °F (at 6:00 AM)
Average temperature yesterday: 59 °F

Past Weeks' High & Low Weather Summary

 TemperatureHumidityPressure
High88 °F (Jul 14, 5:00 PM)98% (Jul 21, 6:00 AM)30.26 "Hg (Jul 21, 6:00 AM)
Low42 °F (Jul 21, 6:00 AM)23% (Jul 13, 5:00 PM)29.33 "Hg (Jul 19, 1:00 PM)
Average64 °F64%29.82 "Hg
* Reported Jul 7 4:00 AM — Jul 22 4:00 AM, Wood Buffalo, Weather by CustomWeather, © 2014

Note: Actual official high and low records may vary slightly from our data, if they occured in-between our weather recording intervals... More about our weather records

Advertising

Wood Buffalo weather history for previous 24 hours

 ConditionsComfort  
Time TempWeatherWind HumidityBarometerVisibility
4:00 AM
Jul 22
48 °FCool.1 mph92%30.04 "HgN/A
3:00 AM50 °FCool.1 mph85%30.02 "HgN/A
2:00 AM48 °FCool.1 mph83%30.01 "HgN/A
1:00 AM52 °FCool.2 mph79%29.99 "HgN/A
12:00 AM56 °FCool.2 mph73%29.97 "HgN/A
11:00 PM
Jul 21
57 °FCool.5 mph78%29.96 "HgN/A
10:00 PM61 °FCool.2 mph63%29.95 "HgN/A
9:00 PM69 °FMild.No wind39%29.93 "HgN/A
8:00 PM72 °FMild.2 mph29%29.91 "HgN/A
7:00 PM73 °FMild.2 mph31%29.90 "HgN/A
6:00 PM72 °FMild.3 mph33%29.90 "HgN/A
5:00 PM72 °FMild.3 mph33%29.89 "HgN/A
4:00 PM73 °FMild.6 mph32%29.88 "HgN/A
3:00 PM71 °FMild.6 mph34%29.88 "HgN/A
2:00 PM70 °FMild.6 mph38%29.88 "HgN/A
1:00 PM69 °FMild.8 mph41%29.87 "HgN/A
12:00 PM68 °FMild.3 mph39%29.87 "HgN/A
11:00 AM64 °FMild.2 mph60%29.86 "HgN/A
10:00 AM59 °FCool.1 mph67%29.85 "HgN/A
9:00 AM54 °FCool.1 mph74%29.84 "HgN/A
8:00 AM49 °FCool.1 mph86%29.83 "HgN/A
7:00 AM45 °FQuite cool.No wind93%29.82 "HgN/A
6:00 AM42 °FQuite cool.2 mph98%29.80 "HgN/A
5:00 AM43 °FQuite cool.No wind97%29.79 "HgN/A
Weather by CustomWeather, © 2014

See weather overviewHow to use our weather pages